Погода в Оконешникове

Россия / Омская область     54°50′31″N   75°04′00″E
темп.,
°C
ветер,
м/с
пор.,
м/с
влажн.,
%
обл.,
%
осадки,
мм/ч
давл.,
гПа
погр.,
м
17 мая, вт
вт1700:00+17ююв6126253 0.4 1004242
03:00+16ююз486019 0.0 1003132
06:00+15ююз356094 0.0 100392
09:00+21зюз68405 0.0 1002784
12:00+24зюз912271 0.0 10032624
15:00+25зюз91426100 0.0 10023294
18:00+22з9133460 0.0 10041989
21:00+19зюз61236100 0.0 1005565
18 мая, ср
ср1800:00+15зюз37472 0.0 1006116
03:00+14з3450100 0.0 100858
06:00+13юз335451 0.0 100962
09:00+19юз233766 0.0 1010657
12:00+22юз342894 0.0 10102221
15:00+15ююз2466100 1.4 1010281
18:00+14зюз3581100 2.8 1009207
21:00+13всв2283100 0.6 1007110
19 мая, чт
чт1900:00+13с2491100 2.6 1006221
03:00+12с2493100 0.1 1003185
06:00+12з379526 0.1 1003293
09:00+16юз710639 0.0 1002880
12:00+16зюз11145148 0.8 10031883
15:00+15юз10164794 0.2 10042111
18:00+16зюз11184799 0.3 10052269
21:00+14з6145588 0.3 10071307
20 мая, пт
пт2000:00+13зюз7155111 0.3 1008559
03:00+11зюз511602 0.0 1010338
06:00+11зюз5126514 0.0 1012432
09:00+14зюз71153100 0.0 10131182
12:00+18зюз7103668 0.0 10122043
15:00+21юз81133100 0.0 10112625
18:00+19юз61048100 0.0 10091322
21:00+18юв345290 0.0 100780
21 мая, сб
сб2100:00+19ю7164398 0.0 1005464
03:00+19ю9204082 0.0 1003537
06:00+17ю8204472 0.0 1002514
09:00+22ю9133323 0.0 1000592
12:00+28ю71123100 0.0 9992228
15:00+29ю81119100 0.0 9963137
18:00+29ююв7922100 0.0 9942142
21:00+24юв81728100 0.0 992579